Lapse_Rate
1.8 1.9 1.8 1.0 1.6 2.0 2.5 2.6 2.7 2.9 3.4 3.8 3.9 4.1 4.1 4.2 4.4 4.7 5.1 4.9 5.1 4.4 4.1 3.9 3.8 3.9 3.7 3.8 3.6 4.0 6.3 6.7
1.8 1.6 1.8 2.3 3.0 2.2 2.4 2.3 2.8 3.2 3.3 3.7 3.9 4.1 4.2 4.3 4.5 4.6 5.0 4.8 4.4 4.6 4.2 4.0 3.9 3.8 3.8 3.5 3.7 3.8 6.7 6.7
1.6 1.6 1.6 1.9 2.4 2.9 2.2 2.5 2.7 3.1 3.7 3.6 3.9 5.5 5.3 5.4 5.5 5.1 4.9 5.0 4.6 4.5 4.3 4.1 3.9 3.9 3.8 3.8 3.9 6.4 6.6 6.9
2.0 2.4 2.2 1.9 2.0 2.9 3.2 3.4 3.7 4.3 4.6 4.5 5.0 5.0 5.5 5.6 5.4 4.7 5.0 5.0 4.9 4.7 4.6 4.5 4.4 5.8 5.3 3.5 5.7 5.8 6.5 6.3
1.9 2.0 1.8 1.8 2.2 2.6 2.8 2.5 2.4 2.5 3.7 4.5 4.5 4.5 4.7 5.3 6.1 5.6 6.1 5.1 6.2 5.4 5.4 6.3 6.3 5.6 5.0 6.1 5.8 5.3 6.6 6.2
3.3 1.6 1.3 1.0 2.2 2.6 2.5 2.3 1.8 1.9 3.2 3.7 4.0 3.4 3.6 5.1 6.0 5.5 5.8 6.0 6.1 6.3 6.2 6.1 6.3 5.9 5.8 5.1 4.3 4.4 5.5 5.7
3.3 2.6 1.6 1.6 1.4 2.6 2.6 1.9 1.6 2.0 3.4 2.9 3.3 3.5 3.0 3.4 4.3 4.7 5.4 5.4 5.9 6.1 6.2 6.2 6.6 6.1 5.8 5.8 5.0 5.0 4.8 4.7
3.9 2.7 1.7 2.6 2.0 2.4 2.5 2.4 2.1 2.3 2.9 3.2 2.6 3.4 3.0 2.5 3.0 3.5 5.0 5.2 5.6 5.9 6.3 6.4 6.7 6.0 6.1 5.8 6.2 5.0 4.6 4.0
4.1 4.2 3.6 2.5 3.0 2.3 2.8 3.2 2.9 2.3 2.1 1.8 1.9 2.2 2.0 2.3 2.4 2.5 3.5 4.3 5.0 5.5 5.8 6.0 6.5 5.7 5.4 5.8 6.1 5.8 6.0 4.1
4.3 4.3 3.0 2.4 3.0 2.4 2.1 3.2 3.0 2.9 1.5 1.3 1.1 1.6 1.6 1.6 2.1 2.7 2.0 2.9 4.5 5.2 4.8 5.4 6.0 6.0 5.3 5.7 6.1 5.5 4.5 4.6
3.4 3.6 4.6 2.7 2.5 3.1 3.2 2.7 2.5 2.3 1.8 1.6 1.4 1.5 1.5 1.1 2.2 2.6 2.3 2.5 3.6 4.2 4.3 5.3 5.8 5.5 6.1 6.0 6.2 5.4 4.0 4.8
1.7 2.1 3.5 4.1 3.1 2.5 2.5 3.2 2.6 1.8 1.2 1.2 1.3 1.7 1.5 1.9 2.5 2.3 2.7 2.7 3.4 3.7 3.9 4.4 5.4 5.7 5.2 5.5 5.8 6.0 5.1 4.5
1.1 0.5 0.8 3.1 4.2 3.0 2.3 1.6 2.5 2.1 1.6 1.5 1.8 2.0 2.1 2.2 2.2 2.4 2.2 2.9 3.7 3.4 3.7 4.6 4.6 4.9 5.3 5.7 5.9 6.2 5.9 4.7
1.9 1.4 0.5 1.0 4.7 5.0 4.3 3.6 3.9 2.0 1.8 1.9 2.1 2.3 2.3 2.9 2.3 2.1 2.0 2.8 3.7 4.2 4.1 4.8 4.8 4.6 5.4 4.9 5.3 5.0 5.3 5.6
2.0 1.9 1.6 1.5 1.8 6.4 7.8 6.8 6.7 5.6 4.5 1.5 1.4 1.8 2.2 2.5 2.7 2.0 2.0 2.8 3.6 4.6 5.0 5.4 5.0 4.9 5.5 5.3 5.3 6.1 5.2 5.0
2.1 1.2 1.4 2.0 3.0 6.1 8.4 7.7 7.6 7.1 4.3 2.0 1.0 1.4 2.5 2.7 2.7 2.3 2.4 3.0 3.6 5.3 5.9 5.1 5.3 5.4 5.1 5.4 5.1 6.4 6.6 6.1
1.6 0.8 0.9 1.9 2.6 3.7 8.0 8.4 8.2 7.9 7.4 3.9 1.6 0.7 1.8 2.7 2.8 3.0 3.1 2.8 3.7 4.8 5.4 5.3 5.2 5.4 5.3 4.8 5.1 4.9 5.1 5.6
2.0 0.7 0.0 0.6 2.0 2.6 6.3 8.3 8.3 8.3 8.0 5.2 2.1 1.1 1.5 1.9 2.4 2.6 2.5 2.5 3.8 5.5 5.2 5.5 5.1 4.9 5.6 5.8 5.2 5.4 5.9 5.4
3.0 2.0 0.2 0.8 1.6 2.8 5.5 7.2 7.3 8.1 8.1 6.6 2.6 1.1 0.9 1.9 1.6 1.8 1.1 2.0 3.5 5.7 5.4 5.3 5.1 5.0 5.0 5.5 5.8 5.7 6.6 7.6
2.7 1.6 1.3 2.1 2.0 2.7 5.7 7.3 6.5 7.3 7.9 7.9 4.9 2.7 0.9 1.9 1.3 1.8 1.3 2.2 4.1 5.9 6.4 6.0 4.8 4.6 5.3 5.5 5.6 5.9 5.9 5.9
Wind_Speed
10 13 15 15 18 20 20 19 20 21 19 17 16 17 17 17 17 17 18 18 18 17 16 17 18 18 20 21 21 19 15 13
9 10 11 13 15 15 18 21 20 19 21 19 18 17 17 18 18 17 17 17 15 17 17 17 18 19 20 20 19 16 14 14
5 7 8 12 12 15 15 15 17 18 18 19 18 15 16 17 17 17 17 16 17 17 17 18 18 17 17 18 17 13 13 13
6 7 6 7 9 13 14 14 15 16 16 17 16 15 15 15 15 18 18 17 18 19 18 17 18 14 15 14 13 12 12 12
9 7 6 8 8 9 9 10 10 11 15 17 16 15 14 14 13 13 14 15 13 13 12 14 15 13 14 14 12 11 10 10
12 11 9 9 9 7 9 7 9 9 15 17 13 7 9 10 10 13 12 12 11 11 10 13 14 14 15 13 10 9 9 7
13 14 12 9 10 9 8 9 7 12 15 18 17 9 9 9 9 11 11 11 11 9 9 9 10 12 12 13 11 10 8 5
14 16 17 15 14 13 10 9 12 12 14 17 19 15 7 7 8 8 9 12 12 11 8 8 7 9 9 11 11 10 10 7
12 14 11 17 18 14 11 10 12 10 10 17 17 16 12 7 8 8 7 12 12 10 9 8 7 7 8 8 11 11 9 9
11 11 15 19 16 14 11 12 11 10 11 13 18 18 16 8 7 8 11 10 10 8 8 7 7 7 7 7 7 9 7 7
14 11 14 17 17 14 14 14 11 10 12 12 17 19 17 9 8 7 13 6 7 7 7 8 8 7 8 7 8 7 5 5
11 11 11 14 12 11 8 10 10 9 11 11 15 16 18 11 9 9 9 7 7 7 7 7 6 7 6 6 6 6 6 5
13 12 11 10 11 11 10 11 12 11 11 15 15 15 18 15 9 10 10 9 9 9 6 8 5 6 3 5 5 8 8 5
15 14 12 10 11 11 12 12 12 12 11 13 15 16 16 15 14 11 11 8 10 11 9 4 4 8 3 2 2 2 6 8
15 15 15 12 13 11 10 8 7 8 10 10 14 18 17 16 16 12 12 10 9 11 11 12 6 6 8 3 2 3 2 3
15 17 17 14 13 14 18 13 14 12 14 13 13 18 16 17 17 15 14 11 11 10 10 10 8 6 5 6 1 2 3 3
17 17 17 16 15 15 15 18 14 13 13 17 15 15 17 16 15 16 15 10 11 12 11 11 9 7 7 4 5 1 2 2
17 18 18 17 16 15 18 21 19 14 15 13 11 11 12 16 16 15 14 12 13 12 11 13 10 8 8 7 7 5 5 3
16 18 19 19 18 16 19 19 20 19 17 13 13 10 8 16 17 15 13 13 13 13 11 11 10 10 8 6 6 7 5 7
18 18 19 18 17 17 16 17 11 13 15 12 11 11 11 14 14 14 14 14 13 13 11 10 10 8 10 8 6 7 6 4
Wind_Direction
160 170 171 166 171 171 174 170 167 166 169 172 170 173 173 174 180 185 184 182 180 175 179 176 169 169 170 175 171 172 176 181
171 172 176 183 188 180 178 175 175 177 174 176 178 180 182 182 188 191 192 188 180 177 185 177 172 174 175 174 173 167 183 186
186 177 185 187 188 190 184 183 180 183 183 181 180 187 192 192 195 197 197 192 186 188 189 181 176 173 176 176 176 186 191 198
202 201 201 194 197 194 194 192 193 197 196 190 188 192 196 197 202 205 202 195 194 190 189 183 177 183 187 174 190 196 198 205
196 198 206 208 208 198 202 199 196 201 201 197 195 191 197 201 203 206 209 201 199 198 184 187 191 190 189 198 197 198 210 222
192 201 204 205 209 205 199 207 201 203 202 201 200 193 191 200 202 201 203 198 198 194 191 192 195 198 198 198 191 192 210 219
193 187 196 212 206 206 207 209 203 208 205 198 198 205 201 194 196 198 201 195 197 193 196 193 196 199 202 207 201 205 189 195
208 196 189 194 200 208 210 210 215 205 205 205 197 201 204 198 194 189 201 200 196 194 192 196 200 200 209 212 209 200 173 151
228 237 222 201 204 201 204 211 209 208 208 208 213 207 202 196 196 186 187 196 194 192 192 190 199 208 213 212 208 199 192 167
276 231 219 213 209 202 201 203 204 207 203 205 205 207 194 184 196 196 170 177 192 193 188 188 206 210 214 216 213 195 165 157
288 259 231 216 211 209 209 207 204 202 206 207 204 202 195 186 192 188 172 170 185 189 192 194 202 209 223 217 212 195 188 164
312 293 260 234 216 213 205 205 210 208 207 207 197 202 195 193 188 171 171 179 179 180 184 192 199 204 196 201 209 209 191 173
337 324 306 262 224 209 204 209 211 212 213 209 200 195 199 195 182 172 176 186 189 181 175 184 182 181 186 197 206 216 209 202
335 328 317 297 241 222 213 209 222 216 209 210 203 198 194 198 185 181 180 180 185 186 185 173 182 175 177 117 189 193 207 197
331 324 318 302 288 238 220 215 217 205 208 196 204 200 192 191 189 181 179 182 189 184 187 189 176 186 192 147 165 195 160 188
329 324 317 304 289 254 221 211 210 213 208 204 199 200 197 192 189 183 183 186 183 186 192 190 178 194 190 218 141 161 191 194
329 323 313 307 291 268 231 219 221 212 216 208 199 192 192 192 190 186 184 178 184 182 186 188 192 187 194 182 195 149 258 136
329 321 315 308 298 280 243 224 220 216 211 200 194 192 194 188 185 188 188 176 182 185 183 190 189 195 201 199 190 185 195 174
327 321 313 308 301 284 252 225 221 220 216 207 190 185 184 197 187 186 178 174 178 184 175 185 190 195 190 195 204 206 231 231
325 321 314 310 303 294 252 218 216 218 215 208 200 196 190 194 191 186 173 171 177 184 186 184 186 197 202 201 209 214 200 212